Tracking 29892 objects as of 21-Nov-2024
HD Live streaming from Space Station
objects crossing your sky now

BREEZE-M DEB

Track BREEZE-M DEB now!
10-day predictions


NORAD ID: 38960
Int'l Code: 2012-044CT
Perigee: 253.9 km
Apogee: 1,448.9 km
Inclination: 50.1 °
Period: 101.8 minutes
Semi major axis: 7222 km
RCS: 0.0421 m2 (small)
Launch date: August 6, 2012
Source: Commonwealth of Independent States (former USSR) (CIS)
Launch site: TYURATAM MISSILE AND SPACE COMPLEX (TTMTR)

Note: This is SATELLITE DEBRIS
Your satellite tracking list
Your tracking list is empty




NASA's NSSDC Master Catalog

Two Line Element Set (TLE):
1 38960U 12044CT  24326.08939763  .00177687  11663-4  15890-2 0  9991
2 38960  50.0634 336.4006 0827283 152.7311 211.9665 14.14437559516384
Source of the keplerian elements: AFSPC